Volver al catálogo

YAOGAN 25C DEB

ActivoLEO
NORAD 69733·DEBRIS·🇷🇺 Russia

Lanzado Dec 10, 2014 desde Jiuquan Satellite Launch Center

Loading…

Próximos Pases (próximas 24 horas)

TLE

EnvejeciendoSource: Space-Track

Época: Sep 12, 2026, 03:11 UTC

1 69733U 14080N   26255.13297029  .00007472  00000-0  83932-2 0  9991
2 69733  63.3825  84.6404 0328712  15.7629 345.3342 13.50603754 45935

Sigue YAOGAN 25C DEB en tiempo real con AllMySat

Download on the App Store